ESEO
1 43792U 18099AL  24272.53309496  .00004192  00000-0  33697-3 0  9995
2 43792  97.5012 323.5983 0006344 321.2250  38.8519 15.00522240317697
CSIM
1 43793U 18099AM  24272.13465462  .00041299  00000-0  17589-2 0  9998
2 43793  97.5207 336.3699 0009357 311.0501  48.9926 15.22811496318405
JO-97
1 43803U 18099AX  24272.42693903  .00016738  00000-0  10135-2 0  9995
2 43803  97.5096 328.9460 0007694 312.7194  47.3387 15.10651545318266
Suomi 100
1 43804U 18099AY  24272.14237224  .00013858  00000-0  86473-3 0  9994
2 43804  97.5166 328.4223 0013222 311.8280  48.1819 15.09549821318199
ISAT
1 43879U 18111D   24272.56354053  .00026056  00000-0  14032-2 0  9992
2 43879  97.6067 177.9749 0012949  18.1561 342.0130 15.14725798315044
UWE-4
1 43880U 18111E   24272.29793506  .00020520  00000-0  11516-2 0  9998
2 43880  97.5999 177.4429 0016711  24.3120 335.8896 15.13258033315007
Sparrow
1 43881U 18111F   24272.56285428  .00026458  00000-0  14011-2 0  9997
2 43881  97.6171 180.0881 0012022  55.1332 305.1028 15.15329194315119
Prox-1
1 44339U 19036A   24272.40894330  .00017458  00000-0  27916-2 0  9992
2 44339  23.9992 279.7968 0008128  79.3241 280.8169 14.70231721280431
SONATE
1 44400U 19038Q   24272.24803657  .00042127  00000-0  10048-2 0  9996
2 44400  97.7162 271.4565 0017526  98.1005 262.2230 15.41279965289915
Taurus 1
1 44530U 19059C   24272.83452816  .00017922  00000-0  38912-2 0  9990
2 44530  98.5840  35.9741 0010599 102.4509 257.7875 14.58093106266851
Duchifat 3
1 44854U 19089C   24272.80050351  .00037163  00000-0  15878-2 0  9992
2 44854  36.9542 137.6385 0009010 271.8611  88.1106 15.21947430263961
TO-108
1 44881U 19093C   24272.81140028  .00003026  00000-0  36669-3 0  9992
2 44881  97.8209 347.5877 0013768 349.2928  10.7992 14.84295527258410
FloripaSat 1
1 44885U 19093G   24272.75454753  .00011405  00000-0  11165-2 0  9995
2 44885  97.8353 354.6491 0011214 334.9625  25.1048 14.92416416258800
RS-44
1 44909U 19096E   24272.85813828  .00000009  00000-0 -12489-4 0  9999
2 44909  82.5244  35.8704 0217823 168.5832 192.0328 12.79734227222281
UPMSat 2
1 46276U 20061E   24272.13140386  .00035436  00000-0  89540-3 0  9997
2 46276  97.2861 337.4802 0002561 122.0860 238.0635 15.39719102225981
AmicalSat
1 46287U 20061R   24272.45032383  .00084250  00000-0  14806-2 0  9991
2 46287  97.3363 340.4736 0003009 191.4177 168.7007 15.50201141225489
SALSAT
1 46495U 20068K   24272.42988410  .00013197  00000-0  69661-3 0  9999
2 46495  97.8277 234.5399 0011705 330.8445  29.2132 15.15610715219931
UVSQ-SAT
1 47438U 21006AB  24272.13302782  .00294087  00000-0  18850-2 0  9992
2 47438  97.3060 335.4362 0006191 202.0759 158.0241 15.75423668204768
SOMP 2b
1 47445U 21006AJ  24272.41430995  .00165473  00000-0  16553-2 0  9993
2 47445  97.3044 333.1494 0006558 199.4140 160.6871 15.65025026204672
IDEASSat
1 47458U 21006AX  24272.14780894  .00113806  00000-0  14948-2 0  9992
2 47458  97.3168 332.9250 0006336 197.7977 162.3058 15.58107748204527
CubeSX-Sirius-HSE
1 47951U 21022V   24272.85654035  .00052172  00000-0  16274-2 0  9995
2 47951  97.4446 171.3403 0015068 121.1088 239.1635 15.32938816194416
CubeSX-HSE
1 47952U 21022W   24272.86512312  .00053826  00000-0  16660-2 0  9994
2 47952  97.4446 171.4655 0015070 120.3372 239.9362 15.33178133194422
KSU-Cubesat
1 47954U 21022Y   24272.27674300  .00054107  00000-0  14340-2 0  9993
2 47954  97.4453 172.7897 0014191 115.1016 245.1703 15.38055930194178
GRBAlpha
1 47959U 21022AD  24272.75869027  .00047419  00000-0  14674-2 0  9991
2 47959  97.4445 171.5231 0014909 120.8400 239.4311 15.33219672193237
Orbicraft-Zorkiy
1 47960U 21022AE  24272.84715035  .00067072  00000-0  18662-2 0  9990
2 47960  97.4488 173.3410 0014382 116.2906 243.9818 15.36483406194021
TUBIN
1 48900U 21059X   24272.87141500  .00037942  00000-0  10861-2 0  9994
2 48900  97.6579  60.9888 0006135  84.6801 275.5142 15.35828436180805
LEDSAT
1 49069U 21073D   24272.76581045  .00031040  00000-0  10397-2 0  9994
2 49069  97.4273 343.5291 0015948 274.6356  85.3063 15.30758756172269
CUTE
1 49263U 21088D   24272.19085807  .00036093  00000-0  13907-2 0  9991
2 49263  97.4861 337.8513 0013497  86.4011 273.8770 15.26165725165315
TeikyoSat 4
1 49396U 21102B   24272.51434395  .00004626  00000-0  32705-3 0  9996
2 49396  97.4508 313.9215 0011129 285.2201  74.7795 15.05309271158291
Z-Sat
1 49399U 21102E   24272.83954695  .00009117  00000-0  56142-3 0  9995
2 49399  97.4212 316.0785 0017908 259.9846  99.9362 15.10076481158622
KOSEN 1
1 49402U 21102H   24272.84984748  .00013842  00000-0  76696-3 0  9999
2 49402  97.4134 317.9420 0016549 239.2770 120.6832 15.13800343158813
HO-113
1 50466U 21131B   24272.88021127  .00001887  00000-0  61294-3 0  9994
2 50466  98.5244 357.4662 0004566 163.8341 196.2994 14.39998567144926
IRIS-A
1 51044U 22002BN  24272.79663502  .00052488  00000-0  13616-2 0  9991
2 51044  97.3734 339.3349 0004794  39.8655 320.2942 15.38814752150319
OreSat0
1 52017U 22026K   24272.71787867  .05536506  25391-5  15541-2 0  9998
2 52017  97.4621 294.2677 0008913 218.4788 141.5870 16.27709670141953
Planetum 1
1 52738U 22057G   24272.85921509  .00177245  00000-0  21895-2 0  9990
2 52738  97.5719  43.9070 0003130 187.6843 172.4365 15.59538283130610
Foresail-1
1 52766U 22057AL  24272.31989862  .00043138  00000-0  11066-2 0  9990
2 52766  97.5917  40.7883 0008427 129.0607 231.1389 15.39182732130273
SNUGLITE 2
1 52899U 22065F   24272.39319034  .00003649  00000-0  74439-3 0  9999
2 52899  98.1340  51.6671 0007756 183.6681 176.4465 14.61521067119337
IO-117
1 53106U 22080B   24267.95696015 -.00000003  00000-0  00000-0 0  9993
2 53106  70.1418 158.2149 0008148  84.7125 275.4465  6.42557419 51615
FO-118
1 54684U 22167C   24272.88699746  .00084964  00000-0  20608-2 0  9998
2 54684  97.6146  60.9242 0007872 148.3374 211.8346 15.40702467100203
SSS-2B
1 56184U 23054G   24272.85751408  .00124401  00000-0  17943-2 0  9991
2 56184  97.3499 172.5201 0008682 122.8106 237.3986 15.55519907 82161
CIRBE
1 56188U 23054L   24271.48915067  .01326517  99103-3  23372-2 0  9997
2 56188  97.3292 176.0405 0010212 144.8242 215.3714 16.02140874 82305
SO-120
1 56992U 23084BU  24272.79078233  .00091428  00000-0  22898-2 0  9999
2 56992  97.5374  34.0400 0008166   7.6830 352.4539 15.39696248 72052
MRC-100
1 56993U 23084BV  24272.88137232  .00120936  00000-0  25736-2 0  9996
2 56993  97.5369  35.0189 0007204 354.9150   5.2024 15.44482711 72132
UmKA 1 (RS40S)
1 57172U 23091G   24272.88000178  .00013080  00000-0  81352-3 0  9990
2 57172  97.6014 323.9464 0017722 125.3431 234.9457 15.09624501 69125
CubeBel-2 (EU11S)
1 57175U 23091K   24272.89604312  .00018432  00000-0  11025-2 0  9999
2 57175  97.6011 324.0668 0015703 136.2173 224.0305 15.10995994 69136
VERONIKA
1 58261U 23174F   24272.74096890  .00041584  00000-0  15219-2 0  9991
2 58261  97.4513 346.9443 0010736 232.6547 127.3715 15.27868561 49482
KAFASAT
1 58317U 23174BP  24272.80315711  .00069557  00000-0  21369-2 0  9999
2 58317  97.4449 348.1516 0010137 208.3226 151.7467 15.33401657 49588
ENSO
1 58470U 23185J   24272.82765047  .00038275  00000-0  13553-2 0  9993
2 58470  97.4154 338.7612 0010119 268.7488  91.2592 15.28978451 45941
EIRSAT-1
1 58472U 23185L   24272.87317188  .00042989  00000-0  14602-2 0  9992
2 58472  97.4147 338.9761 0009720 268.3444  91.6683 15.30310608 45960
SO-121
1 58567U 23174CY  24272.46841693  .00218686  00000-0  33325-2 0  9995
2 58567  97.4394 349.8043 0011170 223.3483 136.6893 15.53650664 49667
SONATE-2
1 59112U 24043Q   24272.31152469  .00020801  00000-0  89873-3 0  9998
2 59112  97.4889  35.3448 0013270 293.9254  66.0591 15.22433485 31478
MESAT1
1 60209U 24125G   24272.55323411  .00021696  00000-0  93111-3 0  9994
2 60209  97.3103 122.9279 0023994 325.0259  34.9400 15.22464510 13124
GRBBeta
1 60237U 24128C   24272.26342573  .00009864  00000-0  84078-3 0  9991
2 60237  61.9927 243.4957 0019014 343.9860  16.0626 14.98125369 12031
Curium One
1 60242U 24128H   24272.30121314  .00014759  00000-0  12585-2 0  9992
2 60242  61.9834 243.5758 0019755 330.9160  29.0826 14.97815280 12049
ROBUSTA-3A
1 60243U 24128J   24272.91320405  .00017738  00000-0  15177-2 0  9992
2 60243  61.9898 241.6152 0018018 326.5644  33.4305 14.97602210 12134
CatSat
1 60246U 24125J   24272.85777323  .00022741  00000-0  98250-3 0  9994
2 60246  97.2920 124.3457 0049015 273.0078  86.5549 15.21382036 11281
SR-0 DemoSAT
1 60455U 24147B   24272.69704494  .00274033  00000-0  46800-2 0  9997
2 60455  37.3784  26.7123 0022683  14.6574 345.4844 15.49172783  6705
Binar 4
1 60952U 98067WS  24272.72261212  .00231109  00000-0  26820-2 0  9998
2 60952  51.6334 161.3385 0004862  70.2719 289.8799 15.60459478  4723
CosmoGirlSat
1 60953U 98067WT  24272.04192790  .00135070  00000-0  18168-2 0  9994
2 60953  51.6359 165.0431 0008671  54.0018 306.1776 15.56878984  4616
Sakura
1 60954U 98067WU  24272.67564608  .00146381  00000-0  18909-2 0  9995
2 60954  51.6363 161.7772 0007994  58.4533 301.7239 15.57922181  4716
Binar 2
1 60956U 98067WW  24272.72712540  .00178884  00000-0  21778-2 0  9994
2 60956  51.6299 161.3640 0005981  66.3834 293.7786 15.59383739  4711
